Theta_e
308 309 309 309 309 309 309 309 310 311 311 312 313 313 314 314 315 315 311 314 313 312 312 313 314 314 314 312 309 305 307 308 310 310 313 312 313 311 309 310 309 309 310 307 308
309 308 309 310 310 310 310 311 312 313 312 314 315 315 315 315 315 313 314 314 313 312 313 312 312 312 310 314 311 307 306 307 308 309 313 313 312 312 312 311 311 310 308 304 305
309 308 309 310 311 311 313 314 315 315 314 316 317 317 316 314 313 311 314 313 312 312 313 314 314 312 312 313 313 309 309 308 311 311 312 313 312 310 312 313 310 310 305 303 302
310 309 309 310 311 312 313 315 316 317 317 318 318 317 316 314 317 312 312 311 312 313 314 314 311 312 311 312 312 314 312 311 313 312 312 313 311 312 311 310 305 302 302 301 301
310 310 310 310 311 312 314 315 317 318 318 319 319 317 314 311 313 315 312 311 310 313 313 311 312 311 311 311 311 315 313 311 312 310 309 309 311 311 309 302 302 301 301 300 299
311 311 313 313 313 313 314 316 317 319 320 320 320 316 312 314 314 315 315 312 311 312 312 312 310 310 310 311 311 310 310 309 309 310 309 311 309 309 305 302 302 302 300 298 297
313 314 314 314 314 314 315 317 318 320 320 320 318 313 311 313 314 315 315 312 311 311 311 312 311 311 310 311 309 309 311 308 309 308 309 307 311 309 303 301 302 300 299 297 296
315 314 315 315 315 314 316 317 319 320 320 318 312 313 313 312 312 315 314 313 312 312 312 312 312 309 311 308 306 310 308 312 309 309 309 309 313 305 302 303 301 300 298 297 296
315 315 316 316 315 315 316 317 320 320 319 316 315 312 314 309 312 313 313 313 312 311 311 311 310 308 308 308 309 306 312 309 309 308 310 310 312 305 301 302 301 299 297 297 296
317 317 316 316 316 316 317 319 321 318 316 315 315 314 311 310 309 311 311 312 309 309 310 308 305 307 305 308 314 311 309 308 309 310 310 310 310 303 301 301 300 298 297 296 295
318 318 318 317 316 316 317 321 317 316 316 315 314 314 310 308 308 308 310 310 307 307 310 307 308 311 309 307 308 307 309 311 309 308 311 310 309 305 301 301 300 298 297 296 295
318 318 318 317 316 317 319 318 317 315 319 315 315 311 310 308 308 307 310 309 308 308 306 307 308 308 306 306 308 307 309 309 308 308 308 309 309 303 302 301 300 298 296 295 294
319 318 318 317 316 317 317 320 318 315 317 317 314 314 313 308 310 308 308 307 308 308 307 309 311 306 307 306 307 307 308 308 311 309 306 306 308 305 301 300 299 297 296 295 294
320 319 318 317 317 317 317 319 320 315 318 317 316 316 310 310 314 309 308 308 308 309 307 308 308 310 308 309 308 310 307 308 310 312 315 306 313 308 303 301 299 298 296 295 293
323 320 318 317 318 318 318 318 321 314 320 314 314 309 310 317 310 308 306 308 309 309 310 315 310 310 311 311 309 312 308 309 308 308 309 309 311 308 302 303 301 298 296 294 293
323 321 319 317 318 319 319 320 315 319 323 317 308 308 313 308 307 305 307 306 307 309 309 312 307 308 310 308 309 304 307 305 303 306 312 310 310 310 306 305 302 298 296 295 293
321 323 320 317 317 320 316 316 324 325 315 313 311 308 313 307 307 308 308 308 312 314 312 310 309 307 306 307 306 308 311 315 313 312 316 306 308 309 305 303 302 300 297 295 293
320 321 320 317 317 319 315 323 324 321 318 308 307 308 314 307 307 308 308 311 308 310 311 315 317 308 306 308 309 308 311 316 316 312 311 308 313 312 304 300 299 299 297 294 292
321 320 318 318 317 318 318 324 321 319 317 309 307 309 309 306 307 307 308 309 312 307 317 313 315 306 306 306 308 309 311 309 309 301 311 310 308 306 302 300 298 297 296 295 293
319 319 318 318 318 317 321 321 320 318 312 310 317 311 311 307 307 307 307 307 311 308 309 312 314 309 306 307 308 308 307 313 309 312 311 308 308 309 306 303 298 297 297 295 293
318 320 319 318 317 320 322 319 319 318 314 312 316 315 309 309 308 307 308 308 307 308 309 310 312 312 307 309 311 311 312 309 309 307 308 306 306 302 305 302 300 299 298 296 294
317 321 316 318 320 321 323 319 316 318 317 317 314 317 311 310 308 307 308 307 305 308 312 309 310 310 310 307 305 309 310 309 312 310 305 307 309 302 302 301 300 299 298 296 294
317 317 314 318 324 323 320 321 319 318 320 320 318 315 313 314 314 308 305 307 306 309 312 310 311 309 309 309 306 309 308 308 306 305 306 309 307 302 301 300 299 298 297 295 294
311 317 310 310 313 321 321 321 322 315 317 317 316 314 314 315 313 313 310 308 307 308 310 311 310 314 320 313 309 310 308 307 310 306 308 310 307 305 304 302 299 298 297 294 293
310 314 311 313 315 318 319 318 318 319 314 314 314 317 318 321 317 316 309 307 307 309 306 311 317 307 304 304 305 305 309 307 310 311 312 310 309 305 305 304 301 298 295 294 293
309 308 305 309 312 316 316 319 318 317 315 316 318 317 315 320 320 318 309 309 311 305 308 305 312 307 305 301 301 305 304 307 307 307 308 305 307 303 302 297 297 297 295 295 293
297 298 303 309 310 315 316 316 316 316 311 312 314 316 315 314 308 305 304 307 307 308 307 310 305 311 313 298 301 310 304 304 304 302 306 307 307 296 297 297 297 296 293 292 291
Wind_Speed
2 3 3 4 5 5 6 6 7 7 8 10 10 11 13 14 14 7 2 1 1 3 2 4 3 4 5 4 4 3 4 2 5 6 2 1 2 1 2 2 4 3 4 8 11
5 4 4 5 5 6 6 6 7 8 9 10 11 12 13 14 11 2 1 2 3 4 4 3 2 4 4 3 3 4 3 6 4 4 3 1 1 3 2 4 2 2 9 18 18
7 7 6 6 6 6 6 6 7 9 9 11 12 12 12 12 4 0 2 4 4 5 5 5 6 3 3 2 2 2 4 3 2 3 2 2 1 2 2 1 2 3 4 12 18
9 9 9 8 7 6 7 7 8 9 9 11 12 12 10 6 2 2 2 4 6 5 7 5 5 3 3 2 1 2 2 3 1 2 2 1 1 2 3 1 5 8 8 6 14
11 10 9 9 9 7 7 7 9 10 10 12 11 10 4 4 5 2 2 4 7 7 4 4 3 3 4 4 2 2 1 3 2 4 4 2 4 3 3 7 10 12 15 12 14
12 11 10 9 8 8 7 8 9 10 11 12 10 6 2 3 2 3 3 5 5 7 5 5 6 4 4 3 3 2 2 4 5 3 3 4 1 4 2 6 10 11 11 11 14
12 11 11 10 8 7 8 8 8 9 11 10 8 2 2 10 4 4 4 4 6 5 4 3 7 3 4 3 1 2 3 6 2 1 3 6 2 4 3 6 9 9 8 9 13
14 13 12 11 9 8 9 8 8 10 9 6 2 2 6 4 5 7 7 6 7 6 5 5 5 5 3 4 6 3 4 3 1 2 2 3 3 3 6 5 7 7 6 7 10
17 15 13 11 9 9 9 9 9 8 5 3 2 2 7 3 5 8 9 7 8 8 7 8 5 3 4 5 4 5 3 4 6 2 2 1 4 4 7 8 7 6 6 6 7
16 16 14 12 10 10 9 7 8 6 2 2 1 2 2 4 5 8 8 14 4 6 4 5 5 3 3 4 5 6 4 4 5 2 2 1 7 4 7 8 5 5 5 7 9
18 16 15 13 11 10 7 3 2 2 4 9 6 3 3 4 6 4 7 8 5 5 5 1 4 9 12 9 3 5 4 5 2 3 0 5 7 3 3 5 4 4 6 7 7
21 18 16 13 11 8 4 3 4 1 6 13 5 5 4 8 4 4 11 6 5 6 6 4 7 8 5 5 4 4 4 5 4 2 5 1 7 2 3 2 2 4 5 6 4
24 21 18 13 10 9 10 9 2 1 3 6 7 6 6 11 7 10 12 5 4 6 8 8 4 7 8 4 6 5 6 5 6 0 0 2 5 4 2 4 5 5 4 4 4
26 23 20 14 8 14 8 17 9 1 3 6 6 5 5 9 4 3 14 6 3 11 8 6 3 6 4 6 8 6 8 6 5 4 4 1 4 4 4 4 5 6 6 7 6
31 27 25 26 6 10 8 16 16 2 5 3 4 5 3 6 6 1 3 4 8 7 7 6 7 5 4 6 7 6 6 7 3 4 1 2 1 6 4 7 7 7 6 5 5
31 32 29 31 14 10 10 19 10 3 12 3 3 6 6 2 2 3 3 4 4 5 1 4 1 6 7 3 4 10 7 6 4 3 2 6 6 4 6 6 8 9 9 9 7
27 36 38 33 20 18 22 10 4 8 1 6 5 6 3 5 4 5 7 7 7 6 6 1 4 4 5 6 3 2 6 1 1 1 5 1 3 6 4 3 9 17 13 10 8
29 32 41 42 27 29 20 7 10 9 9 3 5 5 7 7 4 6 7 8 7 3 4 8 5 11 6 7 8 7 7 5 7 4 2 1 6 5 2 1 3 7 11 9 9
32 31 24 37 37 39 9 14 11 6 8 10 4 4 4 4 6 5 8 6 12 11 9 7 6 1 3 4 4 6 5 3 7 2 2 4 4 3 2 1 2 9 12 12 10
28 15 14 33 45 32 12 18 10 9 7 5 17 9 13 10 9 8 10 7 7 14 3 7 2 1 3 3 4 4 7 3 2 3 5 3 3 5 5 7 6 10 15 12 10
22 4 15 35 38 10 13 12 14 5 10 9 14 10 7 9 11 7 8 2 7 13 11 6 4 1 4 6 10 3 4 2 4 3 5 1 5 5 6 9 14 14 14 14 13
7 7 13 42 11 4 15 11 11 14 9 10 5 13 11 11 12 12 15 9 10 14 16 9 5 4 7 2 2 1 7 7 5 5 3 2 5 2 3 8 11 14 14 11 10
4 3 14 25 9 12 3 17 10 14 15 18 13 9 5 13 11 12 9 4 10 16 18 11 5 3 4 3 2 6 5 4 5 3 8 5 4 0 0 6 8 9 9 10 10
4 4 3 3 2 11 15 11 14 4 10 13 5 5 5 9 7 7 9 4 4 6 6 12 5 10 13 5 7 7 7 6 6 4 6 9 6 6 6 8 8 9 9 10 10
3 4 4 4 8 11 8 9 12 7 6 8 4 20 20 12 15 14 4 4 2 5 2 8 11 4 2 2 3 4 9 12 13 12 9 7 12 10 12 12 11 9 7 9 9
5 4 2 2 4 15 13 12 19 20 11 8 16 17 15 24 23 17 9 7 7 3 4 1 5 4 4 2 3 3 7 8 9 4 7 3 9 7 7 7 7 9 9 8 7
2 3 1 6 4 11 13 18 14 15 6 5 14 11 13 8 4 3 4 5 7 8 3 8 6 4 5 3 4 6 11 12 6 5 10 11 9 6 5 8 8 8 9 8 7
Wind_Direction
313 333 337 332 334 334 336 340 339 341 335 337 341 341 339 335 333 328 327 125 182 171 150 134 77 54 64 70 60 122 66 158 193 162 190 24 57 283 318 336 353 10 74 7 358
287 295 306 318 318 323 327 334 338 338 331 338 338 338 337 335 332 346 161 164 148 155 148 133 77 51 44 54 31 80 107 213 191 194 140 93 138 297 17 2 349 349 46 31 47
276 281 286 295 309 324 336 336 339 338 333 338 339 337 336 337 347 193 143 167 160 151 133 114 104 72 65 42 21 150 164 193 235 210 169 150 232 219 175 25 241 316 34 28 42
270 277 281 286 299 316 325 331 336 335 334 337 340 340 336 340 299 165 168 171 172 153 138 110 45 67 95 110 39 101 167 183 292 153 153 241 183 260 184 73 74 79 81 53 40
268 274 277 282 290 304 311 321 328 334 331 336 339 342 352 21 258 191 154 162 170 168 151 124 113 130 143 137 111 145 269 167 261 277 261 33 244 251 9 95 84 68 52 43 38
264 270 280 282 293 299 301 311 322 330 330 331 334 340 59 248 211 200 174 177 184 178 155 139 169 180 107 129 151 174 278 276 264 218 216 192 164 129 97 112 67 61 51 42 40
264 267 272 280 285 287 292 301 312 320 324 326 326 324 121 241 207 194 188 181 176 181 148 167 143 108 126 119 57 110 311 318 285 287 217 154 123 76 53 98 72 58 56 46 34
262 265 271 273 276 276 281 291 302 313 315 324 340 162 241 226 205 189 160 133 138 137 125 137 143 102 88 122 27 59 50 344 315 351 347 172 228 177 331 135 78 63 52 54 42
263 262 265 267 268 270 276 289 299 308 303 284 267 183 261 173 187 190 182 156 133 112 99 115 85 88 51 100 16 9 221 220 315 27 152 136 248 93 357 88 80 61 51 53 44
257 257 257 259 264 263 273 288 293 291 261 244 147 5 204 217 163 160 160 150 124 113 62 55 58 87 53 116 216 194 202 240 233 234 132 191 270 85 39 79 91 87 72 60 51
250 251 254 253 254 256 267 268 290 281 196 194 198 208 141 130 138 164 154 121 103 76 155 41 127 210 194 197 121 136 170 209 212 243 305 252 256 46 81 77 90 80 75 66 53
247 247 247 246 238 236 229 217 222 153 296 234 215 278 212 170 122 193 167 143 153 166 122 71 225 217 133 155 149 149 161 237 283 207 175 338 263 94 67 81 111 114 84 65 49
245 243 236 229 221 220 221 221 185 319 257 275 193 189 188 167 207 187 158 150 149 142 191 173 202 146 140 145 169 204 188 194 213 248 79 344 281 198 100 128 127 119 126 102 81
242 236 225 205 197 209 218 236 214 262 281 253 218 252 139 143 243 158 174 147 177 188 160 227 222 155 163 192 161 205 200 172 158 127 230 100 270 264 182 173 182 169 162 155 137
240 230 213 199 180 175 215 203 189 181 282 204 162 133 149 169 133 305 169 51 161 167 143 227 167 169 179 207 166 223 129 149 133 131 88 242 154 257 138 217 201 203 192 189 168
258 225 211 198 202 206 196 159 146 86 242 191 130 156 130 137 88 121 133 54 128 114 335 230 159 166 193 117 163 147 84 55 56 83 270 215 182 248 194 198 179 183 189 186 173
259 241 210 192 200 188 160 135 161 203 167 187 188 168 145 154 162 162 168 173 161 139 205 185 213 182 141 97 73 189 118 137 349 238 230 75 163 257 220 191 186 183 186 186 174
251 246 216 200 197 180 159 176 210 221 205 101 117 99 173 155 197 172 142 188 241 127 127 174 250 170 190 180 176 188 172 166 199 199 222 7 223 246 138 336 269 167 171 175 177
248 242 207 201 188 182 174 202 213 167 178 132 76 125 216 216 161 150 196 203 199 182 185 177 247 71 69 133 148 183 190 147 105 59 81 210 274 252 150 127 102 153 166 189 185
240 210 214 204 190 177 203 204 226 187 127 132 207 178 182 185 163 189 176 197 200 186 189 208 127 279 171 112 48 164 151 90 4 189 244 260 266 235 212 193 163 179 188 191 188
232 238 201 201 185 200 206 216 220 191 159 171 209 202 198 173 181 199 211 244 202 189 171 153 132 203 128 210 171 149 167 78 127 154 177 235 249 216 212 176 187 194 193 190 190
223 252 176 165 197 202 215 194 206 209 219 225 210 207 184 174 183 201 207 217 172 157 186 187 133 163 207 285 327 197 182 167 163 213 241 163 253 154 230 192 183 194 196 193 190
211 282 205 187 205 209 176 218 210 201 208 220 221 199 165 199 218 201 195 192 164 172 173 179 196 93 357 335 322 214 194 146 102 79 185 155 248 227 187 157 191 185 188 191 191
144 221 273 284 119 192 204 209 211 174 226 211 210 147 154 203 232 190 209 196 204 192 165 158 157 202 218 192 145 187 186 178 169 162 173 224 185 214 196 192 188 205 192 182 188
180 219 188 213 224 200 188 164 204 195 221 208 221 212 203 219 208 215 177 146 104 199 138 146 210 130 63 57 102 187 175 181 200 211 198 204 226 191 198 200 199 198 176 175 192
173 163 198 259 179 205 194 211 214 217 187 208 232 209 204 218 209 199 159 199 168 202 193 117 166 134 160 28 58 263 229 198 206 215 248 165 245 191 202 110 157 185 164 181 185
182 108 307 178 199 193 207 213 214 199 200 220 219 223 210 219 82 32 42 98 134 151 146 154 139 140 190 125 124 274 208 190 179 181 182 209 226 156 179 185 189 187 181 196 205